This demonstration page uses our WeatherBlox Daily Observations layout. Learn more.

Hourly Observations for December 27, 2017

Temp ( °F °C ) Dew Point ( °F °C ) Humidity (%) Winds ( mph kmh ) Pressure ( in mb ) Visibility ( mi km ) Precip ( " mm )
12:53 am 00:53 Cloudy 10 -12.2 -4 -20 53 53 NW 8 13 30.64 1038 10 16.0934 0 0
1:53 am 01:53 Cloudy 9 -12.8 -3 -19.4 58 58 NW 8 13 30.64 1038 10 16.0934 0 0
2:53 am 02:53 Clear 7 -13.9 -3 -19.4 63 63 N 6 9 30.66 1038 10 16.0934 0 0
3:53 am 03:53 Clear 6 -14.4 -4 -20 63 63 NW 8 13 30.67 1039 10 16.0934 0 0
4:53 am 04:53 Clear 5 -15 -4 -20 66 66 NW 9 15 30.67 1039 10 16.0934 0 0
5:53 am 05:53 Clear 3 -16.1 -4 -20 72 72 NNW 6 9 30.68 1039 10 16.0934 0 0
6:53 am 06:53 Clear 2 -16.7 -3 -19.4 80 80 NW 3 6 30.7 1040 10 16.0934 0 0
7:53 am 07:53 Clear 2 -16.7 -3 -19.4 80 80 WNW 5 7 30.72 1040 10 16.0934 0 0
8:53 am 08:53 Sunny 4 -15.6 -3 -19.4 73 73 WNW 3 6 30.73 1041 10 16.0934 0 0
9:53 am 09:53 Sunny 6 -14.4 -2 -18.9 69 69 WNW 3 6 30.76 1042 10 16.0934 0 0
10:53 am 10:53 Sunny 9 -12.8 1 -17.2 70 70 NW 5 7 30.76 1042 10 16.0934 0 0
11:53 am 11:53 Sunny 12 -11.1 2 -16.7 64 64 WNW 5 7 30.75 1041 10 16.0934 0 0
12:53 pm 12:53 Sunny 14 -10 1 -17.2 56 56 Calm 30.73 1041 10 16.0934 0 0
1:53 pm 13:53 Sunny 15 -9.4 0 -17.8 51 51 NW 6 9 30.71 1040 10 16.0934 0 0
2:53 pm 14:53 Sunny 16 -8.9 0 -17.8 49 49 NW 7 11 30.72 1040 10 16.0934 0 0
3:53 pm 15:53 Sunny 15 -9.4 -1 -18.3 49 49 WNW 8 13 30.72 1040 10 16.0934 0 0
4:53 pm 16:53 Sunny 14 -10 -2 -18.9 49 49 NNW 6 9 30.73 1041 10 16.0934 0 0
5:53 pm 17:53 Clear 12 -11.1 0 -17.8 58 58 NNW 6 9 30.74 1041 10 16.0934 0 0
6:53 pm 18:53 Clear 12 -11.1 1 -17.2 61 61 NNW 6 9 30.76 1042 10 16.0934 0 0
7:53 pm 19:53 Clear 12 -11.1 2 -16.7 64 64 N 6 9 30.76 1042 10 16.0934 0 0
8:53 pm 20:53 Clear 11 -11.7 1 -17.2 64 64 N 6 9 30.74 1041 10 16.0934 0 0
9:53 pm 21:53 Clear 10 -12.2 1 -17.2 67 67 N 3 6 30.76 1042 10 16.0934 0 0
10:53 pm 22:53 Clear 9 -12.8 1 -17.2 70 70 N 5 7 30.73 1041 10 16.0934 0 0
11:53 pm 23:53 Clear 7 -13.9 1 -17.2 76 76 Calm 30.75 1041 10 16.0934 0 0

Powered by AerisWeather